Home > Weather > Erding > Past weeks

Flag for Germany Weather for the Past 2 Weeks in Erding, Bavaria, Germany

Now
59 °F

Clear.


Feels Like: 57 °F
Forecast: 47 / 68 °F
Wind: 10 mph from East

Location: Munich / Franz Josef Strauss Airport

Current Time: May 6, 2016 at 11:39:59 PM

Latest Report: May 6, 2016 at 11:20 PM


Visibility: 10 mi

Pressure: 29.95 "Hg

Humidity: 59%

Dew Point: 45 °F

Location of ErdingLocation

Historic Weather in Erding — Graph

°F

Erding Temperature Yesterday

Maximum temperature yesterday: 59 °F (at 3:50 PM)
Minimum temperature yesterday: 36 °F (at 5:50 AM)
Average temperature yesterday: 49 °F

High & Low Weather Summary for the Past Weeks

 TemperatureHumidityPressure
High70 °F (May 6, 3:20 PM)100% (Apr 22, 2:50 AM)30.33 "Hg (Apr 22, 2:50 AM)
Low27 °F (Apr 29, 5:50 AM)22% (Apr 30, 4:50 PM)29.59 "Hg (Apr 26, 9:20 AM)
Average47 °F71%29.98 "Hg
* Reported Apr 21 10:20 PM — May 6 10:20 PM, Erding, Weather by CustomWeather, © 2016

Note: Actual official high and low records may vary slightly from our data, if they occured in-between our weather recording intervals... More about our weather records

Advertising

Erding Weather History for the Previous 24 Hours

Scroll right to see more
 ConditionsComfort  
Time TempWeatherWind HumidityBarometerVisibility
10:20 PM
Fri, May 6
59 °FPassing clouds.7 mph55%29.95 "HgN/A
9:50 PM61 °FClear.6 mph52%29.95 "Hg10 mi
9:20 PM61 °FSunny.6 mph52%29.95 "Hg10 mi
8:50 PM63 °FSunny.6 mph49%29.95 "Hg10 mi
8:20 PM64 °FSunny.6 mph43%29.95 "Hg10 mi
7:50 PM66 °FSunny.7 mph40%29.92 "Hg10 mi
7:20 PM68 °FSunny.8 mph38%29.95 "Hg10 mi
6:50 PM68 °FSunny.9 mph38%29.95 "Hg10 mi
6:20 PM70 °FSunny.12 mph33%29.95 "Hg10 mi
5:50 PM70 °FPassing clouds.10 mph35%29.95 "HgN/A
5:20 PM70 °FPassing clouds.9 mph31%29.95 "HgN/A
4:50 PM70 °FSunny.10 mph33%29.98 "Hg10 mi
4:20 PM70 °FPassing clouds.10 mph29%29.98 "HgN/A
3:50 PM70 °FPassing clouds.10 mph27%29.98 "HgN/A
3:20 PM70 °FPassing clouds.12 mph27%30.01 "HgN/A
2:50 PM68 °FSunny.10 mph33%30.01 "Hg10 mi
2:20 PM68 °FPassing clouds.8 mph35%30.01 "HgN/A
1:50 PM66 °FPassing clouds.9 mph35%30.04 "HgN/A
1:20 PM66 °FPassing clouds.9 mph40%30.04 "HgN/A
12:50 PM64 °FPassing clouds.9 mph43%30.04 "HgN/A
12:20 PM64 °FPassing clouds.9 mph49%30.04 "HgN/A
11:50 AM64 °FPassing clouds.9 mph52%30.07 "HgN/A
11:20 AM61 °FPassing clouds.7 mph55%30.07 "HgN/A
10:50 AM59 °FPassing clouds.8 mph63%30.07 "HgN/A
10:20 AM59 °FPassing clouds.7 mph63%30.07 "HgN/A
9:50 AM57 °FSunny.8 mph67%30.07 "Hg10 mi
9:20 AM55 °FSunny.12 mph72%30.07 "Hg10 mi
8:50 AM54 °FSunny.10 mph77%30.07 "Hg10 mi
8:20 AM52 °FPassing clouds.9 mph82%30.07 "HgN/A
7:50 AM50 °FPassing clouds.3 mph88%30.07 "HgN/A
7:20 AM48 °FSunny.No wind87%30.07 "Hg10 mi
6:50 AM46 °FSunny.2 mph87%30.07 "Hg10 mi
6:20 AM45 °FFog.No wind93%30.07 "HgN/A
5:50 AM45 °FFog.2 mph93%30.07 "HgN/A
5:20 AM45 °FClear.2 mph100%30.07 "Hg10 mi
4:50 AM45 °FClear.2 mph93%30.07 "Hg10 mi
4:20 AM45 °FClear.1 mph93%30.07 "Hg10 mi
3:50 AM45 °FClear.6 mph93%30.07 "Hg10 mi
3:20 AM45 °FClear.7 mph93%30.09 "Hg10 mi
2:50 AM45 °FClear.5 mph93%30.09 "Hg10 mi
2:20 AM45 °FClear.7 mph93%30.09 "Hg10 mi
1:50 AM45 °FClear.7 mph93%30.09 "Hg10 mi
1:20 AM46 °FPassing clouds.6 mph87%30.09 "HgN/A
12:50 AM46 °FClear.6 mph87%30.12 "Hg10 mi
12:20 AM48 °FClear.7 mph87%30.12 "Hg10 mi
11:50 PM
Thu, May 5
48 °FClear.8 mph87%30.12 "Hg10 mi
11:20 PM48 °FClear.8 mph87%30.12 "Hg10 mi
Weather by CustomWeather, © 2016

See weather overviewHow to use our weather pages